Tracking 18850 objects as of 22-Nov-2017
HD Live streaming from Space Station
objects crossing your sky now

COSMOS 2368

Track COSMOS 2368 now!
COSMOS 2368 is classified as:


NORAD ID: 26042
Int'l Code: 1999-073A
Perigee: 4,116.3 km
Apogee: 36,270.0 km
Inclination: 67.0 °
Period: 718.1 minutes
Semi major axis: 26564 km
RCS: 7.9432 m2 (large)
Launch date: December 27, 1999
Source: Commonwealth of Independent States (former USSR) (CIS)
Launch site: PLESETSK MISSILE AND SPACE COMPLEX (PKMTR)
aabbcc
Your satellite tracking list
Your tracking list is empty




NASA's NSSDC Master Catalog

Two Line Element Set (TLE):
1 26042U 99073A   17326.55388392 -.00000572 +00000-0 +00000-0 0  9999
2 26042 067.0164 164.7357 6052068 223.3043 126.6511 02.00520630131170
Source of the keplerian elements: AFSPC